Weather History for Nellis AFB, NV

Change the Weather History Date:

Tuesday, June 18, 2013

  Actual Average Record
Temperature  
Mean Temperature 91 °F -  
Max Temperature 102 °F 98 °F 107 °F (1997)
Min Temperature 80 °F 72 °F 62 °F (1998)
Cooling Degree Days 26    
Growing Degree Days 41 (Base 50)    
Moisture  
Dew Point 21 °F    
Average Humidity 8    
Maximum Humidity 14    
Minimum Humidity 4    
Precipitation  
Precipitation 0.00 in - - ()
Sea Level Pressure  
Sea Level Pressure 29.65 in    
Wind  
Wind Speed 15 mph (SSW)    
Max Wind Speed 30 mph    
Max Gust Speed 40 mph    
Visibility 10 miles    
Events      
Averages and records for this station are not official NWS values.
T = Trace of Precipitation, MM = Missing Value Source: NWS Daily Summary

Daily Weather History Graph

Daily Weather History Graph

Search for Another Location

Airport:

Trip Planner

Search our weather history database for the weather conditions in past years. The results will help you decide how hot, cold, wet, or windy it might be!

Date:

Astronomy

Jun. 18, 2013 Rise Set
Actual Time 5:22 AM PDT 8:00 PM PDT
Civil Twilight 4:52 AM PDT 8:30 PM PDT
Nautical Twilight 4:14 AM PDT 9:08 PM PDT
Astronomical Twilight 3:32 AM PDT 9:50 PM PDT
Moon 2:55 PM PDT (6/18) 1:25 AM PDT (6/18)
Length of Visible Light 15h 38m
Length of Day
14h 37m
Waxing Gibbous, 72% of the Moon is Illuminated
Jun 18
Waxing Gibbous
Jun 23
Full
Jun 29
Last Quarter
Jul 8
New
Jul 15
First Quarter

Hourly Weather History & Observations

Time (PDT) Temp. Dew Point Humidity Pressure Visibility Wind Dir Wind Speed Gust Speed Precip Events Conditions
12:58 AM 87.1 °F 24.3 °F 10% 29.68 in 10.0 mi South 13.8 mph - N/A   Clear
1:58 AM 85.5 °F 23.5 °F 10% 29.69 in 10.0 mi South 10.4 mph - N/A   Clear
2:58 AM 83.7 °F 24.4 °F 11% 29.68 in 10.0 mi South 12.7 mph - N/A   Clear
3:58 AM 82.0 °F 25.2 °F 12% 29.68 in 10.0 mi South 11.5 mph - N/A   Clear
4:58 AM 81.5 °F 26.8 °F 14% 29.68 in 10.0 mi SSW 12.7 mph - N/A   Clear
5:58 AM 80.8 °F 26.1 °F 13% 29.70 in 10.0 mi South 15.0 mph - N/A   Clear
6:58 AM 83.3 °F 28.2 °F 13% 29.71 in 10.0 mi South 11.5 mph - N/A   Clear
7:58 AM 86.7 °F 26.8 °F 11% 29.71 in 10.0 mi South 18.4 mph - N/A   Clear
8:58 AM 88.9 °F 26.2 °F 10% 29.72 in 10.0 mi South 10.4 mph - N/A   Clear
9:58 AM 94.1 °F 27.5 °F 9% 29.71 in 10.0 mi South 8.1 mph - N/A   Clear
10:08 AM 93.2 °F 26.6 °F 9% 29.79 in 2.5 mi South 4.6 mph - N/A   Haze
10:13 AM 93.2 °F 26.6 °F 9% 29.79 in 8.0 mi Variable 2.3 mph - N/A   Clear
10:58 AM 93.7 °F 24.6 °F 8% 29.70 in 10.0 mi SSE 9.2 mph 18.4 mph N/A   Clear
11:58 AM 96.1 °F 23.2 °F 7% 29.68 in 10.0 mi Variable 6.9 mph 18.4 mph N/A   Clear
12:28 PM 98.6 °F 19.4 °F 6% 29.73 in 10.0 mi SW 20.7 mph 27.6 mph N/A   Clear
12:58 PM 100.0 °F 18.1 °F 5% 29.64 in 10.0 mi SW 21.9 mph 28.8 mph N/A   Clear
1:58 PM 100.8 °F 13.6 °F 4% 29.62 in 10.0 mi SW 24.2 mph 28.8 mph N/A   Clear
2:27 PM 100.4 °F 14.0 °F 4% 29.69 in 10.0 mi SW 16.1 mph 33.4 mph N/A   Clear
2:58 PM 100.8 °F 13.5 °F 4% 29.60 in 10.0 mi SW 15.0 mph 29.9 mph N/A   Clear
3:01 PM 100.4 °F 14.0 °F 4% 29.68 in 10.0 mi South 17.3 mph 29.9 mph N/A   Clear
3:19 PM 102.2 °F 12.2 °F 4% 29.67 in 10.0 mi SW 19.6 mph 29.9 mph N/A   Clear
3:58 PM 101.3 °F 13.8 °F 4% 29.57 in 10.0 mi SW 25.3 mph 29.9 mph N/A   Clear
4:58 PM 99.7 °F 18.0 °F 5% 29.55 in 10.0 mi SSW 21.9 mph 33.4 mph N/A   Clear
5:58 PM 98.8 °F 17.2 °F 5% 29.51 in 10.0 mi SW 29.9 mph 40.3 mph N/A   Clear
6:58 PM 97.9 °F 16.5 °F 5% 29.51 in 10.0 mi SSW 27.6 mph 36.8 mph N/A   Clear
7:58 PM 95.4 °F 19.0 °F 6% 29.53 in 10.0 mi SW 25.3 mph - N/A   Clear
8:58 PM 92.8 °F 22.1 °F 8% 29.54 in 10.0 mi SW 20.7 mph - N/A   Clear
9:58 PM 91.0 °F 23.0 °F 8% 29.52 in 10.0 mi SSW 28.8 mph 35.7 mph N/A   Clear
10:58 PM 88.5 °F 23.4 °F 9% 29.56 in 10.0 mi SSW 19.6 mph 29.9 mph N/A   Clear
11:58 PM 86.0 °F 21.4 °F 9% 29.57 in 10.0 mi SSW 17.3 mph - N/A   Clear